[TLELIST] Archives

 

[list_settings.list_name] Current TLEs

July 22nd 2021 PDT

HST 1 20580U 90037B 21202.37267353 .00000486 00000-0 18414-4 0 9997 2 20580 28.4687 200.6398 0002934 70.6866 68.8536 15.09684728516144 ISS (ZARYA) 1 25544U 98067A 21203.40407588 .00003453 00000-0 71172-4 0 9991 2 25544 51.6423 168.5744 0001475 184.3976 313.3642 15.48839820294053 CXO 1 25867U 99040B 21205.13499689 .00000322 00000-0 00000-0 0 9996 2 25867 54.1612 253.6947 8377316 226.6916 0.4512 0.37808395 10581 ____________________________________________________________________ These 2-Line ...Continue Reading

[list_settings.list_name] Current TLEs

July 21st 2021 PDT

HST 1 20580U 90037B 21201.71601731 .00000456 00000-0 16608-4 0 9996 2 20580 28.4687 204.9850 0002913 64.1697 99.4577 15.09684198516046 ISS (ZARYA) 1 25544U 98067A 21202.37665880 .00001669 00000-0 38635-4 0 9991 2 25544 51.6425 173.6538 0001593 178.6872 346.6124 15.48829380293890 CXO 1 25867U 99040B 21202.48995911 .00000309 00000-0 00000-0 0 9995 2 25867 54.2379 253.8083 8371801 226.6930 0.3019 0.37802322 10578 ____________________________________________________________________ These 2-Line ...Continue Reading

[list_settings.list_name] Current TLEs

July 20th 2021 PDT

HST 1 20580U 90037B 21200.72433140 .00000434 00000-0 15239-4 0 9998 2 20580 28.4686 211.5474 0002880 54.3908 108.8748 15.09683567515896 ISS (ZARYA) 1 25544U 98067A 21200.70021948 .00001590 00000-0 37216-4 0 9994 2 25544 51.6427 181.9428 0001777 172.2918 359.3942 15.48822027293639 CXO 1 25867U 99040B 21202.48995911 .00000309 00000-0 00000-0 0 9995 2 25867 54.2379 253.8083 8371801 226.6930 0.3019 0.37802322 10578 ____________________________________________________________________ These 2-Line ...Continue Reading

[list_settings.list_name] Current TLEs

July 19th 2021 PDT

HST 1 20580U 90037B 21200.18020318 .00000424 00000-0 14640-4 0 9991 2 20580 28.4686 215.1480 0002850 49.0473 31.0940 15.09683222516056 ISS (ZARYA) 1 25544U 98067A 21200.21959965 .00001691 00000-0 39053-4 0 9992 2 25544 51.6430 184.3183 0001777 169.2119 200.8889 15.48820562293561 CXO 1 25867U 99040B 21202.48976012 .00000309 00000-0 00000-0 0 9996 2 25867 54.2381 253.8083 8371796 226.6932 0.2748 0.37802491 10560 ____________________________________________________________________ These 2-Line ...Continue Reading

[list_settings.list_name] Current TLEs

July 18th 2021 PDT

HST 1 20580U 90037B 21198.40492213 .00000404 00000-0 13452-4 0 9997 2 20580 28.4687 226.8957 0002797 30.8152 101.7967 15.09682359515544 ISS (ZARYA) 1 25544U 98067A 21199.33996690 .00001782 00000-0 40721-4 0 9993 2 25544 51.6429 188.6696 0001808 165.8534 336.4006 15.48817075293420 CXO 1 25867U 99040B 21199.84657666 .00000361 00000-0 00000-0 0 9990 2 25867 54.2977 253.9043 8369212 226.7113 0.3620 0.37808299 10551 ____________________________________________________________________ These 2-Line ...Continue Reading

[list_settings.list_name] Current TLEs

July 17th 2021 PDT

HST 1 20580U 90037B 21197.40489333 .00000396 00000-0 12932-4 0 9997 2 20580 28.4689 233.5133 0002777 20.4663 66.3576 15.09681866515394 ISS (ZARYA) 1 25544U 98067A 21198.23333625 .00002235 00000-0 48999-4 0 9993 2 25544 51.6424 194.1412 0002006 161.8991 286.0127 15.48813802293256 CXO 1 25867U 99040B 21199.84657666 .00000361 00000-0 00000-0 0 9990 2 25867 54.2977 253.9043 8369212 226.7113 0.3620 0.37808299 10551 ____________________________________________________________________ These 2-Line ...Continue Reading

[list_settings.list_name] Current TLEs

July 16th 2021 PDT

HST 1 20580U 90037B 21196.20511215 .00000414 00000-0 14050-4 0 9993 2 20580 28.4691 241.4525 0002715 7.6837 25.5770 15.09681390515218 ISS (ZARYA) 1 25544U 98067A 21197.40752575 .00002080 00000-0 46171-4 0 9998 2 25544 51.6421 198.2252 0001949 161.2303 359.1523 15.48808816293123 CXO 1 25867U 99040B 21197.20079981 .00000483 00000-0 00000-0 0 9991 2 25867 54.3927 254.0589 8369175 226.6760 0.1801 0.37813729 10541 ____________________________________________________________________ These 2-Line ...Continue Reading

[list_settings.list_name] Current TLEs

July 15th 2021 PDT

HST 1 20580U 90037B 21195.56565297 .00000402 00000-0 13323-4 0 9999 2 20580 28.4692 245.6839 0002695 0.9217 150.0822 15.09681029515118 ISS (ZARYA) 1 25544U 98067A 21196.43734103 .00001441 00000-0 34513-4 0 9994 2 25544 51.6417 203.0226 0001961 158.1796 349.1646 15.48801353292975 CXO 1 25867U 99040B 21197.20079981 .00000483 00000-0 00000-0 0 9991 2 25867 54.3927 254.0589 8369175 226.6760 0.1801 0.37813729 10541 ____________________________________________________________________ These 2-Line ...Continue Reading

[list_settings.list_name] Current TLEs

July 14th 2021 PDT

HST 1 20580U 90037B 21194.56752312 .00000442 00000-0 15758-4 0 9992 2 20580 28.4694 252.2885 0002649 350.1046 125.4578 15.09680771515201 ISS (ZARYA) 1 25544U 98067A 21195.35017361 .00000938 00000-0 25321-4 0 9991 2 25544 51.6419 208.3999 0001994 159.0726 42.5696 15.48795082292803 CXO 1 25867U 99040B 21197.20079981 .00000483 00000-0 00000-0 0 9991 2 25867 54.3927 254.0589 8369175 226.6760 0.1801 0.37813729 10541 ____________________________________________________________________ These 2-Line ...Continue Reading

[list_settings.list_name] Current TLEs

July 13th 2021 PDT

HST 1 20580U 90037B 21193.57523968 .00000482 00000-0 18170-4 0 9990 2 20580 28.4695 258.8545 0002603 339.2453 132.7137 15.09680401514815 ISS (ZARYA) 1 25544U 98067A 21194.36935123 .00001068 00000-0 27703-4 0 9997 2 25544 51.6420 213.2504 0002073 155.1209 334.1836 15.48792834292655 CXO 1 25867U 99040B 21197.20066023 .00000483 00000-0 00000+0 0 9993 2 25867 54.3929 254.0589 8369150 226.6759 0.1613 0.37814417 21687 ____________________________________________________________________ These 2-Line ...Continue Reading
  • This mailing list is a public mailing list - anyone may join or leave, at any time.
  • This mailing list is announce-only.

International Space Station (ISS) / Hubble Space Telescope (HST) / Chandra X-Ray Observatory Orbital Data via EMAIL

Privacy Policy:

Private list